SCP
0 -0 0 0 -0 -0 0 0 -0 0 0 0 0 0 0 0 0 0 0 0 0 0 1 1 1 1 1 1 0 0 1 1
0 -0 0 0 0 -0 0 0 0 0 0 0 0 0 0 0 0 0 0 0 0 1 1 1 2 2 2 2 2 2 2 2
-0 0 0 0 0 0 0 0 -0 -0 0 0 0 0 0 0 0 0 0 0 0 1 2 2 2 3 2 3 3 3 4 4
0 0 0 0 0 0 -0 0 0 0 0 0 0 0 0 0 0 0 0 0 0 1 2 3 3 3 2 2 3 3 4 4
0 0 0 0 0 0 0 0 0 0 0 0 0 0 0 0 0 0 0 0 0 2 3 3 3 2 2 2 2 3 3 3
0 0 0 0 0 0 0 0 0 0 0 0 0 0 0 0 0 0 0 0 0 1 3 3 3 2 2 2 2 3 3 3
0 0 0 0 0 0 0 0 0 0 0 0 0 0 0 0 0 0 0 0 1 1 2 2 2 2 2 2 3 3 3 3
0 0 0 0 -0 -0 0 0 0 0 0 0 0 0 0 0 0 0 1 1 1 1 2 2 2 2 1 2 3 4 3 3
0 0 0 0 0 0 0 0 0 0 0 0 0 0 0 0 0 0 1 1 1 2 2 2 1 1 1 1 3 3 3 3
0 0 0 0 0 0 0 0 0 0 0 0 0 0 0 1 0 0 0 1 1 2 2 2 1 1 2 3 4 3 3 3
0 0 0 0 0 0 0 0 0 0 0 0 0 0 0 0 0 0 1 1 1 2 2 2 1 1 2 2 2 2 3 3
0 0 0 0 0 0 0 0 0 0 0 0 0 0 0 1 0 0 1 1 1 1 1 1 1 1 1 2 2 2 2 3
0 0 0 0 0 0 0 0 0 0 0 0 0 0 0 0 0 1 0 0 0 0 1 1 1 1 1 1 1 1 2 3
0 0 0 0 0 0 0 0 0 0 0 0 0 0 0 0 0 0 0 0 0 1 1 1 1 2 2 1 1 1 2 2
0 0 0 0 0 0 0 0 0 0 0 0 0 0 0 0 0 0 0 0 0 0 1 1 1 1 1 0 1 2 2 2
0 0 0 0 0 0 0 0 0 0 0 0 0 0 0 0 0 0 0 0 0 0 0 1 1 1 1 2 2 2 3 1
0 0 0 0 0 0 0 0 0 0 0 0 0 0 0 0 0 0 0 0 0 0 0 1 1 0 1 1 1 1 2 2
0 0 0 0 0 0 0 0 0 0 0 0 0 0 0 0 0 0 0 0 0 0 0 0 0 0 0 0 0 1 1 2
0 0 0 0 0 0 0 0 0 0 0 0 0 0 0 0 0 0 0 0 0 0 0 0 0 0 0 0 1 1 1 1
Wind_Speed_500mb
3 8 11 12 11 18 18 13 14 8 6 18 11 6 5 11 23 33 31 30 28 28 25 24 20 14 6 7 17 26 28 29
7 9 9 13 8 16 7 10 15 6 10 6 10 16 18 17 18 28 28 29 29 31 29 25 24 16 11 12 14 21 26 30
14 13 14 3 9 3 13 11 18 18 9 14 8 18 24 30 27 27 32 30 34 32 31 27 22 14 8 15 19 25 28 30
13 8 0 8 8 18 11 10 3 15 24 7 6 23 27 34 38 38 31 33 34 35 34 29 23 14 10 13 23 27 28 29
13 21 12 10 1 12 15 16 23 17 18 5 23 32 26 32 31 34 36 28 36 38 32 25 19 14 11 16 24 30 31 34
21 23 16 22 15 12 23 19 23 27 33 26 21 23 26 32 37 38 27 23 32 36 30 23 17 14 13 17 22 29 34 38
25 18 19 27 28 29 29 29 33 36 36 33 25 27 34 34 34 30 19 14 25 31 25 17 15 13 13 19 24 30 35 43
26 30 28 30 38 38 38 37 34 32 29 22 37 35 29 33 31 24 15 14 22 24 20 16 14 13 17 22 32 35 37 43
31 36 22 32 35 19 22 22 19 21 26 25 26 31 35 35 34 28 17 15 20 21 19 17 15 19 23 25 28 36 42 43
25 25 35 7 11 10 12 14 13 12 18 23 30 38 42 25 30 30 21 17 18 19 17 13 18 25 25 28 34 42 44 40
15 25 28 26 6 7 10 4 13 18 25 39 45 47 41 28 34 28 23 19 17 14 13 17 27 27 29 38 37 37 43 38
24 26 28 8 10 11 4 19 20 29 36 45 49 30 25 44 35 30 24 18 17 17 19 25 36 33 35 41 36 43 36 38
23 30 23 14 8 8 20 11 38 43 45 45 27 32 41 36 32 31 26 24 22 23 26 29 33 34 38 40 47 39 37 42
21 19 31 14 8 10 16 28 33 36 36 38 41 41 37 32 27 23 24 29 29 29 30 32 31 30 34 46 49 40 39 44
14 9 8 12 16 15 16 22 29 35 38 39 37 37 35 34 31 30 29 30 29 28 32 34 35 35 46 75 55 47 36 35
7 12 8 21 14 14 25 24 24 25 24 24 26 26 27 28 30 33 34 35 38 41 44 46 48 53 50 43 47 44 38 36
17 24 22 12 24 25 26 19 20 21 21 24 27 28 31 35 37 40 42 44 47 48 50 52 51 51 53 54 52 50 45 41
9 14 12 24 22 23 22 20 23 26 29 29 31 35 38 41 43 45 48 50 51 51 53 54 52 53 55 53 49 47 47 45
14 20 23 25 23 16 23 25 26 28 30 34 37 38 40 43 44 47 45 46 47 48 49 51 52 55 57 56 48 46 46 40
Wind_Direction_500mb
55 307 276 131 249 12 296 184 262 113 166 258 102 81 341 283 241 232 224 219 207 200 194 187 184 192 204 301 322 317 310 308
93 194 108 309 351 270 228 294 278 161 257 261 35 3 356 336 290 261 233 226 219 206 193 182 174 184 245 272 291 286 290 300
215 25 357 229 224 241 292 295 308 296 343 74 65 352 331 319 310 303 267 231 225 213 193 179 173 181 247 262 272 278 283 294
38 115 242 310 4 293 336 311 292 292 285 101 312 315 302 297 300 302 298 253 232 210 193 180 181 198 230 269 284 289 292 300
188 163 176 246 269 316 295 273 271 297 290 333 316 306 300 305 302 302 293 262 226 205 195 186 185 211 241 274 283 291 292 301
301 338 332 294 269 239 300 293 302 293 310 315 320 297 300 326 330 318 301 260 223 207 195 191 199 223 265 273 279 291 294 300
283 298 278 280 286 289 277 275 288 303 299 309 315 328 323 316 315 316 305 247 212 208 206 204 222 252 272 279 279 288 296 298
287 284 276 277 293 288 282 279 270 285 283 356 337 319 315 313 318 310 297 239 214 213 217 233 246 257 269 279 287 285 286 292
287 300 312 277 283 291 292 292 315 297 358 355 347 344 334 328 322 316 300 245 223 225 237 248 260 277 275 272 278 280 280 291
287 295 272 8 21 350 304 308 19 360 0 351 348 338 327 342 341 325 305 267 250 251 250 256 282 289 276 274 277 283 282 287
280 284 301 292 134 327 316 152 43 357 344 342 339 326 316 10 360 331 307 295 280 269 267 278 295 292 284 289 284 277 281 276
283 289 289 52 80 7 285 245 13 350 342 336 336 317 322 337 331 336 337 318 305 298 298 299 305 308 300 297 290 288 279 274
277 278 279 56 345 329 247 341 342 343 337 333 320 317 317 315 312 317 320 323 320 314 308 308 310 308 309 311 304 296 284 281
264 278 274 29 205 329 351 327 325 320 318 314 313 309 315 326 326 324 319 319 321 319 315 313 317 321 321 310 311 303 288 289
317 4 100 18 332 325 329 316 312 314 313 313 309 312 318 323 328 329 332 333 330 322 317 317 312 311 320 317 308 304 285 275
312 138 346 321 336 334 321 320 324 332 334 339 338 343 342 342 340 337 334 330 325 321 317 314 313 312 307 296 296 295 283 268
278 268 325 288 353 333 333 333 330 331 337 343 342 340 336 333 331 327 322 319 318 314 313 315 315 313 310 304 297 290 277 263
309 14 315 304 327 335 338 338 335 334 333 334 334 330 329 325 322 319 317 319 317 315 313 314 316 315 315 311 303 287 276 267
283 312 296 291 310 315 328 325 323 323 321 323 325 325 325 323 321 320 321 322 321 318 316 316 316 316 316 309 302 287 273 263
Wind_Speed_850mb
3 8 11 12 11 18 18 13 14 8 6 18 11 6 5 11 23 33 31 30 28 28 25 24 20 14 6 7 17 26 28 29
7 9 9 13 8 16 7 10 15 6 10 6 10 16 18 17 18 28 28 29 29 31 29 25 24 16 11 12 14 21 26 30
14 13 14 3 9 3 13 11 18 18 9 14 8 18 24 30 27 27 32 30 34 32 31 27 22 14 8 15 19 25 28 30
13 8 0 8 8 18 11 10 3 15 24 7 6 23 27 34 38 38 31 33 34 35 34 29 23 14 10 13 23 27 28 29
13 21 12 10 1 12 15 16 23 17 18 5 23 32 26 32 31 34 36 28 36 38 32 25 19 14 11 16 24 30 31 34
21 23 16 22 15 12 23 19 23 27 33 26 21 23 26 32 37 38 27 23 32 36 30 23 17 14 13 17 22 29 34 38
25 18 19 27 28 29 29 29 33 36 36 33 25 27 34 34 34 30 19 14 25 31 25 17 15 13 13 19 24 30 35 43
26 30 28 30 38 38 38 37 34 32 29 22 37 35 29 33 31 24 15 14 22 24 20 16 14 13 17 22 32 35 37 43
31 36 22 32 35 19 22 22 19 21 26 25 26 31 35 35 34 28 17 15 20 21 19 17 15 19 23 25 28 36 42 43
25 25 35 7 11 10 12 14 13 12 18 23 30 38 42 25 30 30 21 17 18 19 17 13 18 25 25 28 34 42 44 40
15 25 28 26 6 7 10 4 13 18 25 39 45 47 41 28 34 28 23 19 17 14 13 17 27 27 29 38 37 37 43 38
24 26 28 8 10 11 4 19 20 29 36 45 49 30 25 44 35 30 24 18 17 17 19 25 36 33 35 41 36 43 36 38
23 30 23 14 8 8 20 11 38 43 45 45 27 32 41 36 32 31 26 24 22 23 26 29 33 34 38 40 47 39 37 42
21 19 31 14 8 10 16 28 33 36 36 38 41 41 37 32 27 23 24 29 29 29 30 32 31 30 34 46 49 40 39 44
14 9 8 12 16 15 16 22 29 35 38 39 37 37 35 34 31 30 29 30 29 28 32 34 35 35 46 75 55 47 36 35
7 12 8 21 14 14 25 24 24 25 24 24 26 26 27 28 30 33 34 35 38 41 44 46 48 53 50 43 47 44 38 36
17 24 22 12 24 25 26 19 20 21 21 24 27 28 31 35 37 40 42 44 47 48 50 52 51 51 53 54 52 50 45 41
9 14 12 24 22 23 22 20 23 26 29 29 31 35 38 41 43 45 48 50 51 51 53 54 52 53 55 53 49 47 47 45
14 20 23 25 23 16 23 25 26 28 30 34 37 38 40 43 44 47 45 46 47 48 49 51 52 55 57 56 48 46 46 40
Wind_Direction_850mb
55 307 276 131 249 12 296 184 262 113 166 258 102 81 341 283 241 232 224 219 207 200 194 187 184 192 204 301 322 317 310 308
93 194 108 309 351 270 228 294 278 161 257 261 35 3 356 336 290 261 233 226 219 206 193 182 174 184 245 272 291 286 290 300
215 25 357 229 224 241 292 295 308 296 343 74 65 352 331 319 310 303 267 231 225 213 193 179 173 181 247 262 272 278 283 294
38 115 242 310 4 293 336 311 292 292 285 101 312 315 302 297 300 302 298 253 232 210 193 180 181 198 230 269 284 289 292 300
188 163 176 246 269 316 295 273 271 297 290 333 316 306 300 305 302 302 293 262 226 205 195 186 185 211 241 274 283 291 292 301
301 338 332 294 269 239 300 293 302 293 310 315 320 297 300 326 330 318 301 260 223 207 195 191 199 223 265 273 279 291 294 300
283 298 278 280 286 289 277 275 288 303 299 309 315 328 323 316 315 316 305 247 212 208 206 204 222 252 272 279 279 288 296 298
287 284 276 277 293 288 282 279 270 285 283 356 337 319 315 313 318 310 297 239 214 213 217 233 246 257 269 279 287 285 286 292
287 300 312 277 283 291 292 292 315 297 358 355 347 344 334 328 322 316 300 245 223 225 237 248 260 277 275 272 278 280 280 291
287 295 272 8 21 350 304 308 19 360 0 351 348 338 327 342 341 325 305 267 250 251 250 256 282 289 276 274 277 283 282 287
280 284 301 292 134 327 316 152 43 357 344 342 339 326 316 10 360 331 307 295 280 269 267 278 295 292 284 289 284 277 281 276
283 289 289 52 80 7 285 245 13 350 342 336 336 317 322 337 331 336 337 318 305 298 298 299 305 308 300 297 290 288 279 274
277 278 279 56 345 329 247 341 342 343 337 333 320 317 317 315 312 317 320 323 320 314 308 308 310 308 309 311 304 296 284 281
264 278 274 29 205 329 351 327 325 320 318 314 313 309 315 326 326 324 319 319 321 319 315 313 317 321 321 310 311 303 288 289
317 4 100 18 332 325 329 316 312 314 313 313 309 312 318 323 328 329 332 333 330 322 317 317 312 311 320 317 308 304 285 275
312 138 346 321 336 334 321 320 324 332 334 339 338 343 342 342 340 337 334 330 325 321 317 314 313 312 307 296 296 295 283 268
278 268 325 288 353 333 333 333 330 331 337 343 342 340 336 333 331 327 322 319 318 314 313 315 315 313 310 304 297 290 277 263
309 14 315 304 327 335 338 338 335 334 333 334 334 330 329 325 322 319 317 319 317 315 313 314 316 315 315 311 303 287 276 267
283 312 296 291 310 315 328 325 323 323 321 323 325 325 325 323 321 320 321 322 321 318 316 316 316 316 316 309 302 287 273 263